Weather History for Oceanside, CA

Change the Weather History Date:

Friday, February 8, 2013

  Actual Average Record
Temperature  
Mean Temperature 53 °F 54 °F  
Max Temperature 57 °F 66 °F 82 °F (2006)
Min Temperature 49 °F 42 °F 32 °F (2001)
Degree Days  
Heating Degree Days 12 11  
Month to date heating degree days 89 88  
Since 1 July heating degree days 1112 1193  
Cooling Degree Days 0 0  
Month to date cooling degree days 0 0  
Year to date cooling degree days 0 0  
Moisture  
Dew Point 41 °F    
Average Humidity 63    
Maximum Humidity 71    
Minimum Humidity 54    
Precipitation  
Precipitation 0.14 in 0.09 in 0.18 in (2013)
Month to date precipitation 0.15 0.54  
Year to date precipitation 1.36 3.19  
Since 1 July precipitation 5.20 7.58  
Snow  
Snow 0.00 in - - ()
Month to date snowfall 0.0  
Year to date snowfall 0.0  
Since 1 July snowfall 0.0  
Snow Depth 0.00 in    
Sea Level Pressure  
Sea Level Pressure 29.97 in    
Wind  
Wind Speed 9 mph (West)    
Max Wind Speed 18 mph    
Max Gust Speed 29 mph    
Visibility 9 miles    
Events Rain    
T = Trace of Precipitation, MM = Missing Value Source: NWS Daily Summary

Daily Weather History Graph

Daily Weather History Graph

Search for Another Location

Airport:

Trip Planner

Search our weather history database for the weather conditions in past years. The results will help you decide how hot, cold, wet, or windy it might be!

Date:

Astronomy

Feb. 08, 2013 Rise Set
Actual Time 6:39 AM PST 5:28 PM PST
Civil Twilight 6:13 AM PST 5:53 PM PST
Nautical Twilight 5:44 AM PST 6:23 PM PST
Astronomical Twilight 5:15 AM PST 6:52 PM PST
Moon 5:09 AM PST (2/8) 4:08 PM PST (2/8)
Length of Visible Light 11h 40m
Length of Day
10h 49m
Waning Crescent, 3% of the Moon is Illuminated
Feb 8
Waning Crescent
Feb 9
New
Feb 17
First Quarter
Feb 25
Full
Mar 4
Last Quarter

Hourly Weather History & Observations

Time (PST) Temp. Windchill Dew Point Humidity Pressure Visibility Wind Dir Wind Speed Gust Speed Precip Events Conditions
12:52 AM 54.0 °F - 43.0 °F 66% 30.01 in 10.0 mi WSW 5.8 mph - N/A   Overcast
1:52 AM 54.0 °F - 45.0 °F 72% 30.01 in 10.0 mi WSW 8.1 mph - N/A   Mostly Cloudy
2:52 AM 54.0 °F - 43.0 °F 66% 30.00 in 10.0 mi West 8.1 mph - N/A   Partly Cloudy
3:52 AM 52.0 °F - 37.0 °F 57% 30.00 in 10.0 mi West 8.1 mph - N/A   Scattered Clouds
4:52 AM 52.0 °F - 37.9 °F 59% 30.00 in 10.0 mi West 6.9 mph - N/A   Clear
5:52 AM 51.1 °F - 36.0 °F 56% 30.01 in 10.0 mi West 8.1 mph - N/A   Partly Cloudy
6:52 AM 51.1 °F - 36.0 °F 56% 30.01 in 10.0 mi West 4.6 mph - N/A   Clear
7:52 AM 54.0 °F - 39.9 °F 59% 30.02 in 10.0 mi West 11.5 mph 18.4 mph 0.00 in Rain Light Rain
8:52 AM 48.9 °F - 42.1 °F 77% 30.04 in 5.0 mi West 10.4 mph 28.8 mph 0.01 in Rain Rain
9:52 AM 55.0 °F - 42.1 °F 62% 30.02 in 10.0 mi West 8.1 mph - 0.01 in   Mostly Cloudy
10:52 AM 55.9 °F - 42.1 °F 60% 30.00 in 10.0 mi WSW 12.7 mph 19.6 mph N/A   Scattered Clouds
11:16 AM 50.0 °F - 44.6 °F 82% 30.01 in 1.5 mi Variable 6.9 mph 18.4 mph 0.06 in Rain Heavy Rain
11:28 AM 51.8 °F - 46.4 °F 82% 30.00 in 3.0 mi WSW 5.8 mph 17.3 mph 0.10 in Rain Light Rain
11:52 AM 53.1 °F - 44.1 °F 71% 29.98 in 10.0 mi WSW 10.4 mph - 0.10 in   Mostly Cloudy
12:52 PM 54.0 °F - 44.1 °F 69% 29.96 in 10.0 mi West 8.1 mph - 0.02 in   Scattered Clouds
1:52 PM 54.0 °F - 41.0 °F 62% 29.94 in 10.0 mi West 9.2 mph 21.9 mph 0.00 in   Overcast
2:52 PM 53.1 °F - 41.0 °F 64% 29.93 in 10.0 mi WSW 16.1 mph 20.7 mph N/A   Overcast
3:52 PM 53.1 °F - 37.0 °F 55% 29.92 in 10.0 mi West 11.5 mph - N/A   Scattered Clouds
4:52 PM 52.0 °F - 39.0 °F 61% 29.91 in 10.0 mi West 9.2 mph - N/A   Mostly Cloudy
5:52 PM 50.0 °F - 37.9 °F 63% 29.91 in 10.0 mi West 8.1 mph - N/A   Mostly Cloudy
6:52 PM 48.9 °F - 37.9 °F 66% 29.91 in 7.0 mi WSW 13.8 mph 27.6 mph 0.00 in Rain Light Rain
7:52 PM 48.0 °F - 37.9 °F 68% 29.91 in 10.0 mi West 8.1 mph - 0.01 in Rain Light Rain
8:52 PM 46.0 °F 43.9 °F 39.9 °F 79% 29.92 in 5.0 mi North 4.6 mph - 0.01 in Rain Light Rain
9:52 PM 44.1 °F - 41.0 °F 89% 29.94 in 9.0 mi Calm Calm - 0.00 in Rain Light Rain
10:52 PM 44.1 °F 42.5 °F 41.0 °F 89% 29.93 in 10.0 mi NNE 3.5 mph - 0.02 in   Mostly Cloudy
11:52 PM 43.0 °F 41.3 °F 39.9 °F 89% 29.94 in 10.0 mi NNE 3.5 mph - N/A   Mostly Cloudy